Location: Briis
(48.6240°N, 2.1211°E)
Time: 07:37:23
(UTC+00:00)

Cosmos 2263 Rocket - Pass Details

Date: 25 September 2020
Orbit: 822 x 849 km, 71.0° (Epoch: 21 October)

Event Time Altitude Azimuth Distance (km) Brightness Sun altitude
Rises 02:39:49 0° 331° (NNW) 3,402 5.4 -29.2°
Reaches altitude 10° 02:42:16 10° 330° (NNW) 2,468 4.7 -28.8°
Enters shadow 02:45:23 34° 326° (NW) 1,356 3.2 -28.4°
